[Iaude] MPEC G132: 2024 GL2 [a=1.99,e=0.50,i=5.2,H=27.2]

mpec at cfa.harvard.edu mpec at cfa.harvard.edu
Wed Apr 10 07:18:23 EDT 2024


M.P.E.C. 2024-G132                               Issued 2024 April 10, 11:16 UT

     The Minor Planet Electronic Circulars contain information on unusual
         minor planets, routine data on comets and natural satellites,
         and occasional editorial announcements.  They are published
    on behalf of Division F of the International Astronomical Union by the
          Minor Planet Center, Smithsonian Astrophysical Observatory,
                          Cambridge, MA 02138, U.S.A.
			  
             Prepared using the Tamkin Foundation Computer Network

                              MPC at CFA.HARVARD.EDU
            URL https://www.minorplanetcenter.net/    ISSN 1523-6714

                                    2024 GL2                                    


Observations:
     K24G02L*1C2024 04 07.26361312 29 26.452-04 26 17.16         20.58GVEG132G96
     K24G02L 1C2024 04 07.26878012 29 27.931-04 27 12.92         21.16GVEG132G96
     K24G02L 1C2024 04 07.27393512 29 29.375-04 28 10.52         21.21GVEG132G96
     K24G02L 1C2024 04 07.27908512 29 30.790-04 29 06.61         21.20GVEG132G96
     K24G02L KC2024 04 07.33224512 29 45.740-04 38 52.50         21.06GVEG132I52
     K24G02L KC2024 04 07.33353012 29 46.160-04 39 05.90         21.47GVEG132I52
     K24G02L KC2024 04 07.33609112 29 46.800-04 39 34.00         21.26GVEG132I52
     K24G02L KC2024 04 08.23352712 35 32.896-07 38 55.43         21.59GVEG132I52
     K24G02L KC2024 04 08.23896912 35 34.782-07 40 05.34         20.76GVEG132I52
     K24G02L KC2024 04 08.24169112 35 35.711-07 40 39.25         20.50GVEG132I52
     K24G02L |C2024 04 09.12325012 42 15.180-11 03 25.10         20.9 GVEG132807
     K24G02L |C2024 04 09.12874012 42 17.490-11 04 48.60         20.8 GVEG132807
     K24G02L |C2024 04 09.13426612 42 19.820-11 06 12.20         20.6 GVEG132807
     K24G02L  C2024 04 10.22066312 52 30.288-16 13 11.50         20.3 GVEG132H01
     K24G02L  C2024 04 10.22471712 52 32.528-16 14 26.61         20.4 GVEG132H01
     K24G02L  C2024 04 10.23952212 52 40.747-16 19 01.09         21.1 GVEG132H01
     K24G02L  C2024 04 10.24419012 52 43.342-16 20 27.77         20.2 GVEG132H01

Observer details:
807 Cerro Tololo Observatory, La Serena.  Observers T. Linder, R. Holmes.
    0.61-m f/6.8 Ritchey-Chretien + CCD.
G96 Mt. Lemmon Survey.  Observer H. Groeller.  Measurers T. Beuden, V. F.
    Carvajal, D. Fay, J. B. Fazekas, D. C. Fuls, A. R. Gibbs, A. D. Grauer, H.
    Groeller, J. K. Hogan, R. A. Kowalski, S. M. Larson, G. J. Leonard, D.
    Rankin, R. L. Seaman, F. C. Shelly, K. W. Wierzchos.  1.5-m reflector +
    10K CCD.
H01 Magdalena Ridge Observatory, Socorro.  Observers W. H. Ryan, E. V. Ryan.
    Measurer W. H. Ryan.  2.4-m f/8.9 Ritchey-Chretien + CCD.
I52 Steward Observatory, Mt. Lemmon Station.  Observer J. K. Hogan.  Measurers
    T. Beuden, V. F. Carvajal, D. Fay, J. B. Fazekas, D. C. Fuls, A. R. Gibbs,
    A. D. Grauer, H. Groeller, J. K. Hogan, R. A. Kowalski, S. M. Larson, G.
    J. Leonard, D. Rankin, R. L. Seaman, F. C. Shelly, K. W. Wierzchos.  1.0-m
    prime focus + CCD.

Orbital elements:
2024 GL2                                                 Earth MOID = 0.0236 AU
Epoch 2024 Mar. 31.0 TT = JDT 2460400.5                 Veres                   
M 347.85777              (2000.0)            P               Q                  
n   0.35110213     Peri.  212.57055     -0.65437231     +0.75572376             
a   1.9899725      Node    16.60588     -0.67279520     -0.56615015             
e   0.4992917      Incl.    5.22943     -0.34517170     -0.32917413             
P   2.81           H   27.27          G   0.15           U   8                  
Residuals in seconds of arc
240407 G96  0.3-  0.1-    240407 I52  0.8-  0.5+    240409 807  0.0   0.4+
240407 G96  0.2+  0.7+    240408 I52 (0.2+  1.3-)   240410 H01  0.0   0.0
240407 G96  0.3+  0.4-    240408 I52  0.3+  0.4-    240410 H01  0.1-  0.0
240407 G96  0.0   0.0     240408 I52  0.1+  1.1+    240410 H01  0.0   0.0
240407 I52  0.3-  0.5-    240409 807  0.0   0.3-    240410 H01  0.2+  0.0
240407 I52  0.5+  0.3+    240409 807  0.1-  0.2-

Ephemeris:
2024 GL2                 a,e,i = 1.99, 0.50, 5                   q = 0.9964
Date    TT    R. A. (2000) Decl.     Delta      r    Elong.  Phase     V
2024 03 11    11 49 16.6 +16 22 40   0.1972  1.1858   166.1    11.6    24.8
...
2024 03 26    11 57 57.6 +12 28 53   0.1092  1.1031   164.3    14.1    23.5
...
2024 04 03    12 12 07.8 +04 54 19   0.06842 1.0664   166.2    12.9    22.3
...
2024 04 09    12 41 10.5 -10 33 37   0.04204 1.0432   172.0     7.7    21.0
2024 04 10    12 50 08.7 -15 03 45   0.03839 1.0398   170.6     9.0    20.9
2024 04 11    13 01 26.5 -20 25 08   0.03511 1.0364   167.2    12.4    20.8
...
2024 04 17    16 30 22.2 -61 42 41   0.02939 1.0189   120.3    58.3    21.8
...
2024 04 25    21 51 21.7 -51 31 00   0.05585 1.0031    85.4    91.4    24.2
...
2024 05 10    22 54 19.5 -37 28 32   0.1223  0.9983    81.1    91.9    26.0

M. P. C. Staff               (C) Copyright 2024 MPC           M.P.E.C. 2024-G132





More information about the Iaude mailing list